Regional Weather Roundup
Issued by NWS State College, PA

Home | Current Version | Previous Version | Text Only | Print | Product List | Glossary On
Versions: 1 2 3 4 5 6 7 8 9 10 11 12 13 14 15 16 17 18 19 20 21 22 23 24 25 26 27 28 29 30 31 32 33 34 35 36 37 38 39 40 41 42 43 44 45 46 47 48 49 50
000
ASUS41 KCTP 011603
RWRCTP

REGIONAL WEATHER ROUNDUP
NATIONAL WEATHER SERVICE STATE COLLEGE PA
1200 PM EDT WED APR 01 2015

Note: "fair" indicates few or no clouds below 12,000 feet with no
significant weather and/or obstructions to visibility.

* = STATION THAT DOES NOT REPORT PRECIPITATION /E.G. RAIN...SNOW...ETC/
    THUNDER OR FOG.

PAZ002>004-007>009-013>016-020>023-029>032-011700-
WESTERN PENNSYLVANIA

CITY           SKY/WX    TMP DP  RH WIND       PRES   REMARKS
ERIE           CLOUDY    38  29  70 S3        30.17R
MEADVILLE      CLOUDY    38  30  73 CALM      30.14R
FRANKLIN*      CLOUDY    39  28  65 W7        30.15S
NEW CASTLE     PTSUNNY   46  28  49 CALM      30.16S
BEAVER COUNTY  PTSUNNY   46  23  39 NW3       30.14
BUTLER*        MOSUNNY   46  25  42 CALM      30.17S
PITTSBURGH INT MOSUNNY   48  23  37 VRB3      30.14S
PITTSBURGH     SUNNY     46  18  32 VRB5      30.14S
INDIANA*       PTSUNNY   41  27  56 CALM      30.18S
LATROBE        SUNNY     43  25  49 NW5       30.17F
WASHINGTON CO* SUNNY     48  25  40 S3        30.17R
$$

PAZ004>006-010>012-017>019-024>028-033>037-041-042-045-046-049>053-011700-
CENTRAL PENNSYLVANIA

CITY           SKY/WX    TMP DP  RH WIND       PRES   REMARKS
BRADFORD       CLOUDY    34  21  59 NW8       30.09R
DUBOIS         CLOUDY    38  28  67 VRB3      30.12R
CLEARFIELD     CLOUDY    37  22  54 W6        30.14R
JOHNSTOWN      MOSUNNY   39  24  55 W6        30.10S
ALTOONA        PTSUNNY   44  23  43 W3        30.13R
STATE COLLEGE  MOSUNNY   39  28  65 CALM      30.14S
WILLIAMSPORT   SUNNY     39  26  59 SW8       30.14R
SELINSGROVE    PTSUNNY   43  29  57 NW8       30.15R
FT INDIANTOWN  SUNNY     46  21  37 VRB6      30.13S
CAPITAL CITY   MOSUNNY   47  22  37 N7        30.15R
HARRISBURG     MOSUNNY   43  28  55 S14       30.14
YORK           SUNNY     48  28  46 NW3       30.14S
$$

PAZ038>040-043-044-047-048-054-055-060>062-067>071-011700-
EASTERN PENNSYLVANIA

CITY           SKY/WX    TMP DP  RH WIND       PRES   REMARKS
SCRANTON       MOSUNNY   38  26  62 NW10      30.10R
MOUNT POCONO   MOSUNNY   35  18  49 NW14      30.03R
ALLENTOWN      CLOUDY    43  28  55 N7G20     30.12R
QUAKERTOWN*    SUNNY     43  27  52 N6        30.12S
READING        MOSUNNY   47  25  42 W10G20    30.12S
LANCASTER      MOSUNNY   45  26  47 NW13      30.13S
COATESVILLE    MOSUNNY   45  27  49 NW7G17    30.13R
POTTSTOWN      PTSUNNY   44  27  51 W10       30.13S
BLUE BELL      MOSUNNY   45  30  57 NW6       30.11S
DOYLESTOWN     SUNNY     45  26  47 NW9       30.10S
WILLOW GROVE   NOT AVBL
NORTH PHILA    SUNNY     48  24  39 N13G29    30.13S
PHILADELPHIA   MOSUNNY   47  23  38 NW10      30.13S
$$


USA.gov is the U.S. government's official web portal to all federal, state and local government web resources and services.